Weather History for New Philadelphia, OH

Change the Weather History Date:

Monday, May 12, 2014

  Actual Average Record
Temperature  
Mean Temperature 71 °F 59 °F  
Max Temperature 79 °F 71 °F 89 °F (1979)
Min Temperature 62 °F 46 °F 31 °F (1976)
Degree Days  
Heating Degree Days 0 7  
Month to date heating degree days 78 99  
Since 1 July heating degree days 6082 5514  
Cooling Degree Days 6 1  
Month to date cooling degree days 18 3  
Year to date cooling degree days 19 10  
Growing Degree Days 20 (Base 50)    
Moisture  
Dew Point 65 °F    
Average Humidity 84    
Maximum Humidity 100    
Minimum Humidity 67    
Precipitation  
Precipitation 0.45 in 0.12 in 1.44 in (1968)
Month to date precipitation 1.92 1.42  
Year to date precipitation 13.71 12.85  
Sea Level Pressure  
Sea Level Pressure 30.08 in    
Wind  
Wind Speed 6 mph (SE)    
Max Wind Speed 13 mph    
Max Gust Speed 18 mph    
Visibility 9 miles    
Events Rain , Thunderstorm    
T = Trace of Precipitation, MM = Missing Value Source: NWS Daily Summary

Daily Weather History Graph

Daily Weather History Graph

Search for Another Location

Airport:

Trip Planner

Search our weather history database for the weather conditions in past years. The results will help you decide how hot, cold, wet, or windy it might be!

Date:

Astronomy

May. 12, 2014 Rise Set
Actual Time 6:12 AM EDT 8:32 PM EDT
Civil Twilight 5:41 AM EDT 9:03 PM EDT
Nautical Twilight 5:03 AM EDT 9:41 PM EDT
Astronomical Twilight 4:22 AM EDT 10:23 PM EDT
Moon 6:28 PM EDT (5/12) 4:51 AM EDT (5/12)
Length of Visible Light 15h 21m
Length of Day
14h 20m
Waxing Gibbous, 95% of the Moon is Illuminated
May 12
Waxing Gibbous
May 14
Full
May 21
Last Quarter
May 28
New
Jun 5
First Quarter

Hourly Weather History & Observations

Time (EDT) Temp. Dew Point Humidity Pressure Visibility Wind Dir Wind Speed Gust Speed Precip Events Conditions
12:53 AM 63.0 °F 61.0 °F 93% 30.09 in 10.0 mi ESE 3.5 mph - 0.03 in   Overcast
1:53 AM 63.0 °F 62.1 °F 97% 30.07 in 7.0 mi East 4.6 mph - 0.00 in Rain Light Rain
2:53 AM 63.0 °F 62.1 °F 97% 30.05 in 9.0 mi Calm Calm - 0.00 in   Clear
3:53 AM 63.0 °F 61.0 °F 93% 30.04 in 10.0 mi ESE 4.6 mph - N/A   Mostly Cloudy
4:53 AM 63.0 °F 61.0 °F 93% 30.06 in 6.0 mi South 6.9 mph - 0.04 in Rain Rain
5:53 AM 63.0 °F 61.0 °F 93% 30.06 in 10.0 mi ESE 5.8 mph - 0.07 in Rain Light Rain
6:53 AM 63.0 °F 62.1 °F 97% 30.12 in 3.0 mi SW 5.8 mph - 0.16 in Rain Rain
7:00 AM 64.0 °F 62.1 °F 93% 30.12 in 2.5 mi Variable 3.5 mph - 0.03 in Rain Rain
7:18 AM 63.0 °F 61.0 °F 93% 30.11 in 5.0 mi SE 4.6 mph - 0.07 in Rain Light Rain
7:53 AM 63.0 °F 62.1 °F 97% 30.09 in 8.0 mi SE 5.8 mph - 0.09 in Rain Light Rain
8:20 AM 64.0 °F 63.0 °F 96% 30.09 in 10.0 mi Variable 3.5 mph - 0.01 in Rain Light Rain
8:39 AM 64.0 °F 63.0 °F 96% 30.08 in 10.0 mi SSE 4.6 mph - 0.01 in   Overcast
8:53 AM 64.9 °F 63.0 °F 93% 30.08 in 10.0 mi South 5.8 mph - 0.01 in   Mostly Cloudy
9:09 AM 64.9 °F 63.0 °F 93% 30.09 in 10.0 mi SSE 5.8 mph - N/A   Mostly Cloudy
9:46 AM 66.9 °F 64.0 °F 90% 30.10 in 10.0 mi South 5.8 mph - N/A   Mostly Cloudy
10:04 AM 66.0 °F 64.0 °F 93% 30.11 in 4.0 mi Variable 3.5 mph - 0.02 in Rain Light Rain
10:53 AM 69.1 °F 64.9 °F 87% 30.10 in 10.0 mi Variable 4.6 mph - 0.02 in   Scattered Clouds
11:53 AM 75.0 °F 64.9 °F 71% 30.09 in 10.0 mi WSW 6.9 mph - N/A   Scattered Clouds
12:53 PM 71.1 °F 64.9 °F 81% 30.11 in 10.0 mi SW 6.9 mph - 0.01 in Rain Light Rain
1:19 PM 72.0 °F 64.9 °F 78% 30.11 in 9.0 mi Calm Calm - 0.00 in Rain , Thunderstorm Light Rain
1:53 PM 72.0 °F 64.9 °F 78% 30.10 in 10.0 mi Calm Calm - 0.04 in Thunderstorm Mostly Cloudy
2:06 PM 73.0 °F 66.0 °F 79% 30.10 in 10.0 mi ESE 4.6 mph - N/A   Scattered Clouds
2:53 PM 75.9 °F 66.0 °F 71% 30.09 in 10.0 mi Variable 5.8 mph - N/A   Mostly Cloudy
3:53 PM 78.1 °F 66.9 °F 68% 30.06 in 10.0 mi ESE 6.9 mph - N/A   Overcast
4:53 PM 77.0 °F 68.0 °F 74% 30.04 in 10.0 mi South 5.8 mph - N/A   Mostly Cloudy
5:28 PM 77.0 °F 68.0 °F 74% 30.05 in 10.0 mi SE 5.8 mph - N/A Thunderstorm Partly Cloudy
5:53 PM 75.9 °F 69.1 °F 79% 30.05 in 10.0 mi SSE 9.2 mph - N/A Thunderstorm Overcast
6:12 PM 75.9 °F 69.1 °F 79% 30.06 in 10.0 mi SE 4.6 mph - N/A   Scattered Clouds
6:53 PM 77.0 °F 70.0 °F 79% 30.04 in 10.0 mi SE 9.2 mph - N/A   Mostly Cloudy
7:53 PM 73.9 °F 70.0 °F 87% 30.04 in 10.0 mi SE 5.8 mph - N/A   Clear
8:53 PM 73.0 °F 68.0 °F 84% 30.04 in 10.0 mi ESE 5.8 mph - N/A   Partly Cloudy
9:53 PM 71.1 °F 66.9 °F 87% 30.06 in 10.0 mi ESE 4.6 mph - N/A   Clear
11:36 PM 71.1 °F 68.0 °F 90% 30.08 in 10.0 mi NNE 4.6 mph - N/A Thunderstorm Thunderstorm
11:51 PM 71.6 °F 66.2 °F 83% 30.07 in 10.0 mi ENE 10.4 mph - N/A Thunderstorm Thunderstorm
11:53 PM 71.1 °F 66.0 °F 84% 30.05 in 10.0 mi East 8.1 mph - N/A Thunderstorm Thunderstorm
11:55 PM 71.1 °F 66.0 °F 84% 30.07 in 10.0 mi East 6.9 mph - N/A Thunderstorm Overcast